UTY1253 LGSR-OLBA

Flight info

Callsign UTY1253
Flight time N/A
Altitude 39000
Route KUPIS UN134 MASES DCT VAXOS UM978 TOSKA M978 TOBAL DCT LCA M31 KUKLA
Aircraft E190/M-SDE3GILORVW/S

Departure

Time 2026-04-25 13:47
Airport Santorini International Airport (LGSR)

Arrival

Time N/A
Airport Beirut Rafic Hariri International Airport (OLBA)
Time Latitude Longitude Altitude Speed Heading
2026-04-25 13:27 36.40324 25.47392 109 ft 0 kts 252°
2026-04-25 13:29 36.40327 25.47405 109 ft 4 kts 227°
2026-04-25 13:29 36.40327 25.47416 109 ft 4 kts 127°
2026-04-25 13:30 36.40351 25.47386 109 ft 0 kts 161°
2026-04-25 13:36 36.40349 25.47387 109 ft 1 kts 159°
2026-04-25 13:36 36.40346 25.47390 109 ft 0 kts 146°
2026-04-25 13:36 36.40340 25.47395 107 ft 3 kts 146°
2026-04-25 13:36 36.40306 25.47422 108 ft 8 kts 148°
2026-04-25 13:37 36.40256 25.47460 106 ft 0 kts 149°
2026-04-25 13:38 36.40242 25.47471 105 ft 5 kts 149°
2026-04-25 13:39 36.40197 25.47504 103 ft 10 kts 149°
2026-04-25 13:39 36.40141 25.47559 101 ft 8 kts 111°
2026-04-25 13:39 36.40132 25.47635 100 ft 10 kts 113°
2026-04-25 13:39 36.40058 25.47682 97 ft 15 kts 160°
2026-04-25 13:40 36.39940 25.47738 93 ft 22 kts 160°
2026-04-25 13:40 36.39778 25.47814 89 ft 28 kts 160°
2026-04-25 13:40 36.39579 25.47908 74 ft 33 kts 157°
2026-04-25 13:40 36.39354 25.48015 64 ft 37 kts 158°
2026-04-25 13:41 36.39119 25.48125 58 ft 27 kts 161°
2026-04-25 13:41 36.39054 25.48158 58 ft 2 kts 157°
2026-04-25 13:41 36.39053 25.48158 58 ft 0 kts 157°
2026-04-25 13:42 36.39044 25.48165 58 ft 4 kts 148°
2026-04-25 13:42 36.39035 25.48175 56 ft 2 kts 137°
2026-04-25 13:42 36.39021 25.48203 52 ft 0 kts 114°
2026-04-25 13:44 36.39019 25.48208 53 ft 3 kts 109°
2026-04-25 13:44 36.39023 25.48267 56 ft 0 kts 73°
2026-04-25 13:44 36.39025 25.48275 57 ft 2 kts 73°
2026-04-25 13:44 36.39026 25.48279 57 ft 1 kts 73°
2026-04-25 13:45 36.39029 25.48289 53 ft 0 kts 68°
2026-04-25 13:45 36.39030 25.48290 53 ft 1 kts 68°
2026-04-25 13:45 36.39030 25.48292 53 ft 1 kts 67°
2026-04-25 13:45 36.39054 25.48307 53 ft 9 kts
2026-04-25 13:46 36.39161 25.48263 56 ft 31 kts 347°
2026-04-25 13:46 36.39562 25.48076 72 ft 91 kts 341°
2026-04-25 13:46 36.40327 25.47733 120 ft 139 kts 343°
2026-04-25 13:46 36.41324 25.47276 526 ft 162 kts 344°
2026-04-25 13:47 36.42440 25.46860 1222 ft 163 kts 349°
2026-04-25 13:47 36.43483 25.46435 1397 ft 168 kts 350°
2026-04-25 13:47 36.44675 25.46068 1375 ft 182 kts 359°
2026-04-25 13:47 36.45530 25.46082 1263 ft 190 kts 12°
2026-04-25 13:48 36.47257 25.46334 1557 ft 183 kts 12°
2026-04-25 13:48 36.48115 25.46447 1987 ft 191 kts 12°
2026-04-25 13:48 36.49489 25.46382 2717 ft 208 kts 351°
2026-04-25 13:48 36.50818 25.45522 3463 ft 223 kts 329°
2026-04-25 13:49 36.52094 25.44367 4199 ft 227 kts 326°
2026-04-25 13:49 36.53386 25.43210 4959 ft 231 kts 335°
2026-04-25 13:49 36.54923 25.42897 5612 ft 224 kts 18°
2026-04-25 13:49 36.56178 25.43864 6250 ft 211 kts 60°
2026-04-25 13:50 36.56569 25.45546 6827 ft 203 kts 92°
2026-04-25 13:50 36.56464 25.47294 7419 ft 203 kts 101°
2026-04-25 13:50 36.56150 25.49011 8012 ft 205 kts 112°
2026-04-25 13:50 36.55463 25.50577 8470 ft 214 kts 127°
2026-04-25 13:51 36.54427 25.51970 8882 ft 226 kts 134°
2026-04-25 13:51 36.53286 25.53411 9249 ft 247 kts 134°
2026-04-25 13:51 36.52007 25.54977 9626 ft 269 kts 135°
2026-04-25 13:51 36.50641 25.56649 10189 ft 282 kts 135°
2026-04-25 13:52 36.49162 25.58441 10273 ft 312 kts 136°
2026-04-25 13:52 36.47541 25.60348 10741 ft 325 kts 135°
2026-04-25 13:52 36.45903 25.62328 11413 ft 332 kts 135°
2026-04-25 13:52 36.44229 25.64344 12141 ft 338 kts 135°
2026-04-25 13:53 36.42547 25.66357 12947 ft 342 kts 135°
2026-04-25 13:53 36.40820 25.68421 13802 ft 347 kts 135°
2026-04-25 13:53 36.39076 25.70507 14700 ft 349 kts 135°
2026-04-25 13:53 36.37322 25.72600 15666 ft 350 kts 134°
2026-04-25 13:54 36.35563 25.74691 16619 ft 351 kts 134°
2026-04-25 13:54 36.33786 25.76788 17406 ft 355 kts 134°
2026-04-25 13:54 36.31981 25.78894 18231 ft 358 kts 134°
2026-04-25 13:54 36.30154 25.81015 18948 ft 361 kts 134°
2026-04-25 13:55 36.28302 25.83149 19660 ft 365 kts 135°
2026-04-25 13:55 36.26174 25.84925 20324 ft 376 kts 149°
2026-04-25 13:55 36.23969 25.86639 20920 ft 373 kts 133°
2026-04-25 13:55 36.22493 25.89230 21508 ft 369 kts 110°
2026-04-25 13:56 36.21939 25.92256 22571 ft 355 kts 100°
2026-04-25 13:56 36.21283 25.95189 23466 ft 354 kts 107°
2026-04-25 13:56 36.20408 25.98055 24008 ft 357 kts 110°
2026-04-25 13:56 36.19460 26.00920 24523 ft 361 kts 111°
2026-04-25 13:57 36.18465 26.03801 25014 ft 366 kts 112°
2026-04-25 13:57 36.17783 26.05717 25338 ft 369 kts 112°
2026-04-25 13:57 36.16363 26.09621 25970 ft 374 kts 113°
2026-04-25 13:57 36.15270 26.12565 26424 ft 378 kts 113°
2026-04-25 13:58 36.14156 26.15533 26795 ft 383 kts 113°
2026-04-25 13:58 36.13024 26.18528 27134 ft 385 kts 114°
2026-04-25 13:58 36.11887 26.21532 27495 ft 386 kts 114°
2026-04-25 13:58 36.10744 26.24538 27900 ft 387 kts 114°
2026-04-25 13:59 36.09591 26.27562 28164 ft 390 kts 115°
2026-04-25 13:59 36.08443 26.30567 28485 ft 392 kts 115°
2026-04-25 13:59 36.07276 26.33622 28739 ft 395 kts 115°
2026-04-25 13:59 36.06100 26.36692 29088 ft 395 kts 115°
2026-04-25 14:00 36.04921 26.39770 29388 ft 398 kts 115°
2026-04-25 14:00 36.03736 26.42860 29745 ft 397 kts 116°
2026-04-25 14:00 36.02549 26.45949 29975 ft 401 kts 116°
2026-04-25 14:00 36.01327 26.49101 29787 ft 413 kts 116°
2026-04-25 14:01 36.00425 26.51402 29696 ft 420 kts 116°
2026-04-25 14:01 36.40324 25.47392 29696 ft 0 kts 252°